SITRO-AIS 5 (KATYS)

Last updated on Wed Nov 05 2025 00:03:48 GMT+0000 (Coordinated Universal Time)

1 57176U 23091L 25308.62970652 .00012718 00000+0 54000-3 0 9996 2 57176 97.5407 5.9642 0013439 167.3919 192.7656 15.23134736130085
UTC large
Height (km)
Speed (km/s)
/
Latitude / Longitude
Inclination (degrees)
Orbital Period (minutes)
Azimuth
Elevation
Range (km)
Doppler Factor

Next 0 passes for location: London (51.5072 / 0.1276)

Sorry there are no passes over London.